STARLINK-30704, 57946

Orbit data source: Space-Track

STARLINK-30704, 57946 is a payload satellite owned by SpaceX/Seattle (US) in LEO that was launched on Mon, 25 Sep 2023 UTC via an FALCON 9 launch vehicle from the Air Force Western Test Range (AFWTR). Payload-class satellites include a variety of spacecraft equipped with specific instruments for various scientific and technological missions. These include communications satellites like Starlink; space stations such as the ISS; scientific satellites like the Hubble; Earth observation satellites from companies like Planet Labs, Umbra, and HawkEye 360; GPS; miniature CubeSats for education and research; and military/defense satellites.

Loading next visibility...
Identifier
57946, 2023-148M
Orbit
LEO
Country
Flag of USUS
Related business
Manufacturer
SpaceX/Seattle
Mission
Operational Commercial Communications
Bus & Motor
STARLINK V2M, Unknown motor
Mass
730 kg wet, ~700 kg dry
Launch date (UTC)
2023-09-25 (3 years ago)
Launch vehicle
FALCON 9
Launch site
Air Force Western Test Range (AFWTR)
Object type
Payload
Rocket body
Debris
Shape & HBR
Box + 2 Pan, 17.7 m
Radar Cross Section
33.884 m², Large (>1 m²)

Expand to show TLE details & history
Last TLE update: 3 days ago

TLE from 3 days ago
0 STARLINK-30704
1 57946U 23148M   26170.77435034 -.00000426  00000-0 -14672-5 0  9997
2 57946  53.1628 346.8362 0001082  83.6545 276.4581 15.34401953152952
Epoch: 2026-06-19T18:35Z
TLE epoch observation values (Epoch: 2026-06-19T18:35:03.869Z)
Latitude
-0°
Longitude
160.07158°
Altitude
463.516 km
Speed
7.636 km/s
True Right ascension
23h 07m 20s
True Declination
0° 00' 00"
Sunlit
Object was in daylight at epoch
Visualization orbit readout
Latitude
Unknown
Longitude
Unknown
Altitude
Unknown
Speed
Unknown
Apparent Right ascension
Unknown
Apparent Declination
Unknown
Sunlit
N/A
Visualization observer readout
Local Sidereal Time
21:29:52
Azimuth
Unknown
Elevation
Unknown
Doppler factor
Unknown
Orbital elements
Apogee altitude
463.694 km
Perigee altitude
462.214 km
Semi-major axis
6,841.091 km
Eccentricity
0.00011
Inclination
53.1628°
RAAN
346.8362°
Arg. of periapsis
83.6545°
True anomaly
276.44578°
Mean anomaly
276.4581°
Eccentric anomaly
276.45194°
Mean motion
3.83579 °/min
Orbital period
93.85 mins
BSTAR
-0.0000014672
Loading maneuver chart data...
Computing Atmospheric mass density...
Loading historical data...
Loading historical data...
Loading historical data...
Loading historical data...
Loading historical data...
Loading historical data...
Loading historical data...

Documentation

Showing up to 5 results
|